User: anonymous
Location: State Camp
(41.2367°N, 77.7828°W)
Time: 23:50:12
(UTC-04:00)
Language:

Lacrosse 5 - Orbit

View from above orbital plane
View from above orbital plane
View from above satellite
View from above satellite

Ground track
Ground track

The orbit data is extracted from the following two-line orbital elements,

1 28646U 05016A   14095.10205728 0.00000000  00000-0  00000-0 0    05
2 28646  57.0110 171.7271 0009000 137.0935 222.9065 14.53625995    00
Epoch (UTC): 05 April 2014 02:26:57
Eccentricity: 0.0009000
inclination: 57.0110°
perigee height: 707 km
apogee height: 720 km
right ascension of ascending node: 171.7271°
argument of perigee: 137.0935°
revolutions per day: 14.53625995
mean anomaly at epoch: 222.9065°
orbit number at epoch: 0

The dashed part of the orbit path shows where the satellite is in the earth's shadow,  

DLR